Time,TemperatureF,DewpointF,PressureIn,WindDirection,WindDirectionDegrees,WindSpeedMPH,WindSpeedGustMPH,Humidity,HourlyPrecipIn,Conditions,Clouds,dailyrainin,SoftwareType,DateUTC
2013-09-30 00:01:00,69.3,65.9,29.99,North,360,0.0,0.0,89,0.00,CLR,OVC,0.00,WeatherDisplay:10.37,2013-09-30 04:01:00,
2013-09-30 00:06:00,69.0,65.6,29.98,North,360,0.0,0.0,89,0.00,CLR,OVC,0.00,WeatherDisplay:10.37,2013-09-30 04:06:00,
2013-09-30 00:11:00,68.8,65.4,29.98,North,358,0.0,0.0,89,0.00,CLR,OVC,0.00,WeatherDisplay:10.37,2013-09-30 04:11:00,
2013-09-30 00:16:00,68.7,65.3,29.98,North,358,0.0,0.0,89,0.00,CLR,OVC,0.00,WeatherDisplay:10.37,2013-09-30 04:16:00,
2013-09-30 00:21:00,68.4,65.0,29.98,North,358,0.0,0.0,89,0.00,CLR,OVC,0.00,WeatherDisplay:10.37,2013-09-30 04:21:00,
2013-09-30 00:26:00,68.5,65.1,29.98,North,359,0.0,0.0,89,0.00,CLR,OVC,0.00,WeatherDisplay:10.37,2013-09-30 04:26:00,
2013-09-30 00:31:00,68.6,65.5,29.98,North,359,0.0,0.0,90,0.00,CLR,OVC,0.00,WeatherDisplay:10.37,2013-09-30 04:31:00,
2013-09-30 00:36:00,68.4,65.0,29.97,North,359,0.0,0.0,89,0.00,CLR,OVC,0.00,WeatherDisplay:10.37,2013-09-30 04:36:00,
2013-09-30 00:41:00,68.3,65.3,29.98,ESE,116,0.0,0.0,90,0.00,CLR,OVC,0.00,WeatherDisplay:10.37,2013-09-30 04:41:00,
2013-09-30 00:46:00,68.1,65.1,29.97,ESE,118,0.0,0.0,90,0.00,CLR,OVC,0.00,WeatherDisplay:10.37,2013-09-30 04:46:00,
2013-09-30 00:51:00,68.0,65.0,29.97,ESE,118,0.0,0.0,90,0.00,CLR,OVC,0.00,WeatherDisplay:10.37,2013-09-30 04:51:00,
2013-09-30 00:56:00,67.9,64.9,29.97,ESE,118,0.0,0.0,90,0.00,CLR,OVC,0.00,WeatherDisplay:10.37,2013-09-30 04:56:00,
2013-09-30 01:01:00,67.5,64.5,29.97,ESE,118,0.0,0.0,90,0.00,OVC,OVC,0.00,WeatherDisplay:10.37,2013-09-30 05:01:00,
2013-09-30 01:04:00,67.4,64.4,29.97,ESE,117,0.0,0.0,90,0.00,OVC,OVC,0.00,WeatherDisplay:10.37,2013-09-30 05:04:00,
2013-09-30 01:07:00,67.4,64.4,29.97,ESE,117,0.0,0.0,90,0.00,OVC,OVC,0.00,WeatherDisplay:10.37,2013-09-30 05:07:00,
2013-09-30 01:12:00,67.4,64.4,29.97,ESE,117,0.0,0.0,90,0.00,OVC,OVC,0.00,WeatherDisplay:10.37,2013-09-30 05:12:00,
2013-09-30 01:17:00,67.6,64.6,29.97,ESE,114,0.0,0.0,90,0.00,CLR,OVC,0.00,WeatherDisplay:10.37,2013-09-30 05:17:00,
2013-09-30 01:22:00,67.6,64.6,29.97,ESE,114,0.0,0.0,90,0.00,OVC,OVC,0.00,WeatherDisplay:10.37,2013-09-30 05:22:00,
2013-09-30 01:27:00,67.8,64.8,29.97,ESE,114,0.0,0.0,90,0.00,OVC,OVC,0.00,WeatherDisplay:10.37,2013-09-30 05:27:00,
2013-09-30 01:32:00,67.9,64.9,29.97,ESE,114,0.0,0.0,90,0.00,OVC,OVC,0.00,WeatherDisplay:10.37,2013-09-30 05:32:00,
2013-09-30 01:37:00,68.0,65.0,29.96,ESE,114,0.0,0.0,90,0.00,OVC,OVC,0.00,WeatherDisplay:10.37,2013-09-30 05:37:00,
2013-09-30 01:42:00,68.0,65.0,29.96,ESE,114,0.0,0.0,90,0.00,OVC,OVC,0.00,WeatherDisplay:10.37,2013-09-30 05:42:00,
2013-09-30 01:47:00,68.0,65.0,29.96,ESE,114,0.0,0.0,90,0.00,OVC,OVC,0.00,WeatherDisplay:10.37,2013-09-30 05:47:00,
2013-09-30 01:52:00,68.0,65.0,29.96,ESE,114,0.0,0.0,90,0.00,OVC,OVC,0.00,WeatherDisplay:10.37,2013-09-30 05:52:00,
2013-09-30 01:57:00,68.0,65.0,29.96,SSE,147,0.0,0.0,90,0.00,OVC,OVC,0.00,WeatherDisplay:10.37,2013-09-30 05:57:00,
2013-09-30 02:02:00,68.1,65.1,29.96,ESE,122,0.0,0.0,90,0.00,OVC,OVC,0.00,WeatherDisplay:10.37,2013-09-30 06:02:00,
2013-09-30 02:07:00,68.1,65.4,29.96,ENE,77,0.0,0.0,91,0.00,OVC,OVC,0.00,WeatherDisplay:10.37,2013-09-30 06:07:00,
2013-09-30 02:12:00,68.1,65.4,29.96,ENE,77,0.0,0.0,91,0.00,OVC,OVC,0.00,WeatherDisplay:10.37,2013-09-30 06:12:00,
2013-09-30 02:17:00,68.0,65.0,29.96,ENE,77,0.0,0.0,90,0.00,OVC,OVC,0.00,WeatherDisplay:10.37,2013-09-30 06:17:00,
2013-09-30 02:22:00,68.0,65.0,29.96,SW,230,0.0,0.0,90,0.00,OVC,OVC,0.00,WeatherDisplay:10.37,2013-09-30 06:22:00,
2013-09-30 02:27:00,68.1,65.4,29.96,SW,230,0.0,0.0,91,0.00,OVC,OVC,0.00,WeatherDisplay:10.37,2013-09-30 06:27:00,
2013-09-30 02:32:00,68.2,65.5,29.96,SW,226,0.0,0.0,91,0.00,OVC,OVC,0.00,WeatherDisplay:10.37,2013-09-30 06:32:00,
2013-09-30 02:37:00,68.2,65.5,29.96,SW,226,0.0,0.0,91,0.00,OVC,OVC,0.00,WeatherDisplay:10.37,2013-09-30 06:37:00,
2013-09-30 02:42:00,68.3,65.6,29.96,SW,226,0.0,0.0,91,0.00,OVC,OVC,0.00,WeatherDisplay:10.37,2013-09-30 06:42:00,
2013-09-30 02:47:00,68.4,65.7,29.95,SW,226,0.0,0.0,91,0.00,OVC,OVC,0.00,WeatherDisplay:10.37,2013-09-30 06:47:00,
2013-09-30 02:52:00,68.5,65.8,29.95,SW,226,0.0,0.0,91,0.00,OVC,OVC,0.00,WeatherDisplay:10.37,2013-09-30 06:52:00,
2013-09-30 02:57:00,68.4,65.7,29.95,SW,226,0.0,0.0,91,0.00,OVC,OVC,0.00,WeatherDisplay:10.37,2013-09-30 06:57:00,
2013-09-30 03:02:00,68.4,65.7,29.96,SW,227,0.0,0.0,91,0.00,OVC,OVC,0.00,WeatherDisplay:10.37,2013-09-30 07:02:00,
2013-09-30 03:07:00,68.4,65.7,29.96,SW,226,0.0,0.0,91,0.00,OVC,OVC,0.00,WeatherDisplay:10.37,2013-09-30 07:07:00,
2013-09-30 03:12:00,68.5,65.8,29.95,SW,226,0.0,0.0,91,0.00,OVC,OVC,0.00,WeatherDisplay:10.37,2013-09-30 07:12:00,
2013-09-30 03:17:00,68.6,65.9,29.95,SW,226,0.0,0.0,91,0.00,OVC,OVC,0.00,WeatherDisplay:10.37,2013-09-30 07:17:00,
2013-09-30 03:22:00,68.6,65.9,29.95,SW,226,0.0,0.0,91,0.00,OVC,OVC,0.00,WeatherDisplay:10.37,2013-09-30 07:22:00,
2013-09-30 03:27:00,68.6,65.9,29.95,SW,226,0.0,0.0,91,0.00,OVC,OVC,0.00,WeatherDisplay:10.37,2013-09-30 07:27:00,
2013-09-30 03:32:00,68.6,65.9,29.94,SW,227,0.0,0.0,91,0.00,OVC,OVC,0.00,WeatherDisplay:10.37,2013-09-30 07:32:00,
2013-09-30 03:37:00,68.6,65.9,29.94,SW,226,0.0,0.0,91,0.00,OVC,OVC,0.00,WeatherDisplay:10.37,2013-09-30 07:37:00,
2013-09-30 03:42:00,68.6,65.9,29.94,SW,226,0.0,0.0,91,0.00,OVC,OVC,0.00,WeatherDisplay:10.37,2013-09-30 07:42:00,
2013-09-30 03:47:00,68.7,66.0,29.94,SW,226,0.0,0.0,91,0.00,OVC,OVC,0.00,WeatherDisplay:10.37,2013-09-30 07:47:00,
2013-09-30 03:52:00,68.6,65.9,29.94,SW,226,0.0,0.0,91,0.00,OVC,OVC,0.00,WeatherDisplay:10.37,2013-09-30 07:52:00,
2013-09-30 03:57:00,68.6,65.9,29.94,SW,226,0.0,0.0,91,0.00,OVC,OVC,0.00,WeatherDisplay:10.37,2013-09-30 07:57:00,
2013-09-30 04:02:00,68.5,65.8,29.94,SW,226,0.0,0.0,91,0.00,OVC,OVC,0.00,WeatherDisplay:10.37,2013-09-30 08:02:00,
2013-09-30 04:07:00,68.4,65.7,29.94,SW,227,0.0,0.0,91,0.00,OVC,OVC,0.00,WeatherDisplay:10.37,2013-09-30 08:07:00,
2013-09-30 04:12:00,68.2,65.5,29.94,SW,226,0.0,0.0,91,0.00,OVC,OVC,0.00,WeatherDisplay:10.37,2013-09-30 08:12:00,
2013-09-30 04:17:00,68.2,65.5,29.94,SW,233,0.0,0.0,91,0.00,OVC,OVC,0.00,WeatherDisplay:10.37,2013-09-30 08:17:00,
2013-09-30 04:22:00,68.0,65.3,29.94,SW,233,0.0,0.0,91,0.00,OVC,OVC,0.00,WeatherDisplay:10.37,2013-09-30 08:22:00,
2013-09-30 04:27:00,67.8,65.1,29.94,SW,234,0.0,0.0,91,0.00,OVC,OVC,0.00,WeatherDisplay:10.37,2013-09-30 08:27:00,
2013-09-30 04:32:00,67.8,65.1,29.94,WNW,286,0.0,0.0,91,0.00,OVC,OVC,0.00,WeatherDisplay:10.37,2013-09-30 08:32:00,
2013-09-30 04:37:00,67.7,65.0,29.94,WNW,286,0.0,0.0,91,0.00,OVC,OVC,0.00,WeatherDisplay:10.37,2013-09-30 08:37:00,
2013-09-30 04:42:00,67.5,64.8,29.94,WNW,286,0.0,0.0,91,0.00,OVC,OVC,0.00,WeatherDisplay:10.37,2013-09-30 08:42:00,
2013-09-30 04:47:00,67.5,64.8,29.94,WNW,286,0.0,0.0,91,0.00,OVC,OVC,0.00,WeatherDisplay:10.37,2013-09-30 08:47:00,
2013-09-30 04:52:00,67.5,64.8,29.94,WNW,286,0.0,0.0,91,0.00,OVC,OVC,0.00,WeatherDisplay:10.37,2013-09-30 08:52:00,
2013-09-30 04:56:00,67.5,64.8,29.94,WNW,286,0.0,0.0,91,0.00,OVC,OVC,0.00,WeatherDisplay:10.37,2013-09-30 08:56:00,
2013-09-30 05:01:00,67.5,64.8,29.95,WNW,286,0.0,0.0,91,0.00,OVC,OVC,0.00,WeatherDisplay:10.37,2013-09-30 09:01:00,
2013-09-30 05:06:00,67.5,64.8,29.95,WNW,287,0.0,0.0,91,0.00,OVC,OVC,0.00,WeatherDisplay:10.37,2013-09-30 09:06:00,
2013-09-30 05:11:00,67.2,64.5,29.95,WNW,286,0.0,0.0,91,0.00,OVC,OVC,0.00,WeatherDisplay:10.37,2013-09-30 09:11:00,
2013-09-30 05:17:00,66.9,64.2,29.95,WNW,286,0.0,0.0,91,0.00,OVC,OVC,0.00,WeatherDisplay:10.37,2013-09-30 09:17:00,
2013-09-30 05:21:00,66.7,64.0,29.95,WNW,286,0.0,0.0,91,0.00,OVC,OVC,0.00,WeatherDisplay:10.37,2013-09-30 09:21:00,
2013-09-30 05:26:00,66.6,63.9,29.95,WNW,286,0.0,0.0,91,0.00,OVC,OVC,0.00,WeatherDisplay:10.37,2013-09-30 09:26:00,
2013-09-30 05:31:00,66.5,63.8,29.96,WNW,286,0.0,0.0,91,0.00,OVC,OVC,0.00,WeatherDisplay:10.37,2013-09-30 09:31:00,
2013-09-30 05:36:00,66.4,63.7,29.95,WNW,287,0.0,0.0,91,0.00,OVC,OVC,0.00,WeatherDisplay:10.37,2013-09-30 09:36:00,
2013-09-30 05:41:00,66.5,63.8,29.95,WNW,286,0.0,0.0,91,0.00,OVC,OVC,0.00,WeatherDisplay:10.37,2013-09-30 09:41:00,
2013-09-30 05:46:00,66.5,63.8,29.95,WNW,286,0.0,0.0,91,0.00,OVC,OVC,0.00,WeatherDisplay:10.37,2013-09-30 09:46:00,
2013-09-30 05:51:00,66.5,63.8,29.96,WNW,286,0.0,0.0,91,0.00,OVC,OVC,0.00,WeatherDisplay:10.37,2013-09-30 09:51:00,
2013-09-30 05:56:00,66.6,63.9,29.96,WNW,286,0.0,0.0,91,0.00,OVC,OVC,0.00,WeatherDisplay:10.37,2013-09-30 09:56:00,
2013-09-30 06:01:00,66.6,64.2,29.96,WNW,286,0.0,0.0,92,0.00,OVC,OVC,0.00,WeatherDisplay:10.37,2013-09-30 10:01:00,
2013-09-30 06:06:00,66.6,64.2,29.96,WNW,286,0.0,0.0,92,0.00,OVC,OVC,0.00,WeatherDisplay:10.37,2013-09-30 10:06:00,
2013-09-30 06:11:00,66.5,64.1,29.97,West,277,0.0,0.0,92,0.00,OVC,OVC,0.00,WeatherDisplay:10.37,2013-09-30 10:11:00,
2013-09-30 06:16:00,66.5,64.1,29.97,West,277,0.0,0.0,92,0.00,CLR,OVC,0.00,WeatherDisplay:10.37,2013-09-30 10:16:00,
2013-09-30 06:19:00,66.6,64.2,29.97,West,277,0.0,0.0,92,0.00,CLR,OVC,0.00,WeatherDisplay:10.37,2013-09-30 10:19:00,
2013-09-30 06:21:00,66.6,64.2,29.97,West,277,0.0,0.0,92,0.00,CLR,OVC,0.00,WeatherDisplay:10.37,2013-09-30 10:21:00,
2013-09-30 06:26:00,66.6,64.2,29.97,West,277,0.0,0.0,92,0.00,CLR,OVC,0.00,WeatherDisplay:10.37,2013-09-30 10:26:00,
2013-09-30 06:32:00,66.1,63.4,29.97,West,277,0.0,0.0,91,0.00,CLR,OVC,0.00,WeatherDisplay:10.37,2013-09-30 10:32:00,
2013-09-30 06:37:00,66.1,63.7,29.97,West,277,0.0,0.0,92,0.00,CLR,OVC,0.00,WeatherDisplay:10.37,2013-09-30 10:37:00,
2013-09-30 06:42:00,66.3,63.9,29.97,West,277,0.0,0.0,92,0.00,CLR,OVC,0.00,WeatherDisplay:10.37,2013-09-30 10:42:00,
2013-09-30 06:47:00,66.3,63.9,29.97,West,278,0.0,0.0,92,0.00,CLR,OVC,0.00,WeatherDisplay:10.37,2013-09-30 10:47:00,
2013-09-30 06:52:00,66.1,63.7,29.97,West,278,0.0,0.0,92,0.00,CLR,OVC,0.00,WeatherDisplay:10.37,2013-09-30 10:52:00,
2013-09-30 06:57:00,66.1,63.7,29.98,West,277,0.0,0.0,92,0.00,CLR,OVC,0.00,WeatherDisplay:10.37,2013-09-30 10:57:00,
2013-09-30 07:02:00,66.2,63.8,29.98,West,277,0.0,0.0,92,0.00,CLR,OVC,0.00,WeatherDisplay:10.37,2013-09-30 11:02:00,
2013-09-30 07:07:00,66.2,63.8,29.98,West,277,0.0,0.0,92,0.00,CLR,OVC,0.00,WeatherDisplay:10.37,2013-09-30 11:07:00,
2013-09-30 07:12:00,66.3,63.9,29.98,West,277,0.0,0.0,92,0.00,CLR,OVC,0.00,WeatherDisplay:10.37,2013-09-30 11:12:00,
2013-09-30 07:17:00,66.3,63.9,29.98,West,277,0.0,0.0,92,0.00,CLR,OVC,0.00,WeatherDisplay:10.37,2013-09-30 11:17:00,
2013-09-30 07:22:00,66.4,64.0,29.98,West,277,0.0,0.0,92,0.00,CLR,OVC,0.00,WeatherDisplay:10.37,2013-09-30 11:22:00,
2013-09-30 07:27:00,66.3,63.9,29.99,West,277,0.0,0.0,92,0.00,CLR,OVC,0.00,WeatherDisplay:10.37,2013-09-30 11:27:00,
2013-09-30 07:32:00,66.3,63.9,29.98,West,277,0.0,0.0,92,0.00,CLR,OVC,0.00,WeatherDisplay:10.37,2013-09-30 11:32:00,
2013-09-30 07:37:00,66.4,64.0,29.98,West,277,0.0,0.0,92,0.00,CLR,OVC,0.00,WeatherDisplay:10.37,2013-09-30 11:37:00,
2013-09-30 07:42:00,66.6,64.2,29.99,West,277,0.0,0.0,92,0.00,CLR,OVC,0.00,WeatherDisplay:10.37,2013-09-30 11:42:00,
2013-09-30 07:47:00,66.6,64.2,29.99,West,277,0.0,0.0,92,0.00,CLR,OVC,0.00,WeatherDisplay:10.37,2013-09-30 11:47:00,
2013-09-30 07:52:00,66.7,64.3,29.99,West,277,0.0,0.0,92,0.00,CLR,OVC,0.00,WeatherDisplay:10.37,2013-09-30 11:52:00,
2013-09-30 07:57:00,66.8,64.4,29.99,West,277,0.0,0.0,92,0.00,CLR,OVC,0.00,WeatherDisplay:10.37,2013-09-30 11:57:00,
2013-09-30 08:02:00,67.0,64.6,29.99,West,277,0.0,0.0,92,0.00,SCT,OVC,0.00,WeatherDisplay:10.37,2013-09-30 12:02:00,
2013-09-30 08:07:00,67.7,65.3,29.99,West,277,0.0,0.0,92,0.00,SCT,OVC,0.00,WeatherDisplay:10.37,2013-09-30 12:07:00,
2013-09-30 08:12:00,68.4,66.0,29.99,West,277,0.0,0.0,92,0.00,SCT,OVC,0.00,WeatherDisplay:10.37,2013-09-30 12:12:00,
2013-09-30 08:17:00,69.7,67.3,29.99,West,277,0.0,0.0,92,0.00,SCT,OVC,0.00,WeatherDisplay:10.37,2013-09-30 12:17:00,
2013-09-30 08:22:00,69.9,67.5,29.99,West,277,0.0,0.0,92,0.00,SCT,OVC,0.00,WeatherDisplay:10.37,2013-09-30 12:22:00,
2013-09-30 08:27:00,70.3,67.9,29.99,West,277,0.0,0.0,92,0.00,SCT,OVC,0.00,WeatherDisplay:10.37,2013-09-30 12:27:00,
2013-09-30 08:32:00,71.2,68.8,29.99,West,277,0.0,0.0,92,0.00,SCT,OVC,0.00,WeatherDisplay:10.37,2013-09-30 12:32:00,
2013-09-30 08:37:00,71.7,68.9,30.00,North,351,0.0,0.0,91,0.00,SCT,OVC,0.00,WeatherDisplay:10.37,2013-09-30 12:37:00,
2013-09-30 08:42:00,72.3,69.5,30.00,North,5,0.0,0.0,91,0.00,SCT,OVC,0.00,WeatherDisplay:10.37,2013-09-30 12:42:00,
2013-09-30 08:47:00,72.9,69.8,30.00,NNE,33,0.0,0.0,90,0.00,SCT,OVC,0.00,WeatherDisplay:10.37,2013-09-30 12:47:00,
2013-09-30 08:52:00,73.6,70.2,30.00,NNE,33,0.0,0.0,89,0.00,SCT,OVC,0.00,WeatherDisplay:10.37,2013-09-30 12:52:00,
2013-09-30 08:57:00,73.9,70.1,30.00,North,5,0.0,0.0,88,0.00,SCT,OVC,0.00,WeatherDisplay:10.37,2013-09-30 12:57:00,
2013-09-30 09:02:00,74.1,70.3,30.00,North,355,0.0,0.0,88,0.00,CLR,OVC,0.00,WeatherDisplay:10.37,2013-09-30 13:02:00,
2013-09-30 09:07:00,74.9,71.1,30.00,NNW,334,0.0,0.0,88,0.00,CLR,OVC,0.00,WeatherDisplay:10.37,2013-09-30 13:07:00,
2013-09-30 09:12:00,75.4,71.3,30.00,North,11,0.0,0.0,87,0.00,CLR,OVC,0.00,WeatherDisplay:10.37,2013-09-30 13:12:00,
2013-09-30 09:17:00,76.0,71.5,30.00,North,11,0.0,0.0,86,0.00,CLR,OVC,0.00,WeatherDisplay:10.37,2013-09-30 13:17:00,
2013-09-30 09:22:00,76.7,72.2,30.00,NNW,337,0.0,0.0,86,0.00,CLR,OVC,0.00,WeatherDisplay:10.37,2013-09-30 13:22:00,
2013-09-30 09:27:00,77.6,72.7,30.00,North,3,0.0,0.0,85,0.00,CLR,OVC,0.00,WeatherDisplay:10.37,2013-09-30 13:27:00,
2013-09-30 09:32:00,78.2,72.6,30.00,North,7,1.1,0.0,83,0.00,CLR,OVC,0.00,WeatherDisplay:10.37,2013-09-30 13:32:00,
2013-09-30 09:37:00,78.3,72.3,30.00,NNE,26,0.0,0.0,82,0.00,CLR,OVC,0.00,WeatherDisplay:10.37,2013-09-30 13:37:00,
2013-09-30 09:42:00,78.8,72.5,30.00,NNE,13,0.0,0.0,81,0.00,CLR,OVC,0.00,WeatherDisplay:10.37,2013-09-30 13:42:00,
2013-09-30 09:47:00,79.0,73.0,30.01,ENE,58,0.0,0.0,82,0.00,CLR,OVC,0.00,WeatherDisplay:10.37,2013-09-30 13:47:00,
2013-09-30 09:52:00,79.3,72.6,30.01,NNE,21,0.0,0.0,80,0.00,CLR,OVC,0.00,WeatherDisplay:10.37,2013-09-30 13:52:00,
2013-09-30 09:57:00,79.7,72.6,30.01,SE,131,0.0,0.0,79,0.00,CLR,OVC,0.00,WeatherDisplay:10.37,2013-09-30 13:57:00,
2013-09-30 10:02:00,80.5,73.4,30.01,South,176,0.0,0.0,79,0.00,SCT,OVC,0.00,WeatherDisplay:10.37,2013-09-30 14:02:00,
2013-09-30 10:07:00,81.4,73.5,30.01,North,5,0.0,0.0,77,0.00,SCT,OVC,0.00,WeatherDisplay:10.37,2013-09-30 14:07:00,
2013-09-30 10:12:00,82.1,73.8,30.01,East,80,0.0,0.0,76,0.00,SCT,OVC,0.00,WeatherDisplay:10.37,2013-09-30 14:12:00,
2013-09-30 10:17:00,82.8,73.7,30.01,ENE,74,0.0,0.0,74,0.00,SCT,OVC,0.00,WeatherDisplay:10.37,2013-09-30 14:17:00,
2013-09-30 10:22:00,83.7,73.7,30.01,ESE,117,0.0,0.0,72,0.00,SCT,OVC,0.00,WeatherDisplay:10.37,2013-09-30 14:22:00,
2013-09-30 10:27:00,84.3,73.9,30.01,NNW,346,0.0,0.0,71,0.00,SCT,OVC,0.00,WeatherDisplay:10.37,2013-09-30 14:27:00,
2013-09-30 10:32:00,84.2,73.3,30.01,NNW,347,0.0,0.0,70,0.00,SCT,OVC,0.00,WeatherDisplay:10.37,2013-09-30 14:32:00,
2013-09-30 10:37:00,83.2,72.4,30.01,NNW,341,0.0,0.0,70,0.00,SCT,OVC,0.00,WeatherDisplay:10.37,2013-09-30 14:37:00,
2013-09-30 10:42:00,83.6,73.6,30.01,SE,141,0.0,0.0,72,0.00,SCT,OVC,0.00,WeatherDisplay:10.37,2013-09-30 14:42:00,
2013-09-30 10:47:00,84.0,73.2,30.01,NNW,346,0.0,0.0,70,0.00,SCT,OVC,0.00,WeatherDisplay:10.37,2013-09-30 14:47:00,
2013-09-30 10:52:00,83.9,72.6,30.01,NNW,347,0.0,0.0,69,0.00,SCT,OVC,0.00,WeatherDisplay:10.37,2013-09-30 14:52:00,
2013-09-30 10:57:00,83.5,72.7,30.00,NNW,336,0.0,0.0,70,0.00,SCT,OVC,0.00,WeatherDisplay:10.37,2013-09-30 14:57:00,
2013-09-30 11:02:00,83.7,72.4,30.01,NNW,343,0.0,0.0,69,0.00,SCT,OVC,0.00,WeatherDisplay:10.37,2013-09-30 15:02:00,
2013-09-30 11:07:00,84.2,72.5,30.00,North,5,1.1,1.1,68,0.00,SCT,OVC,0.00,WeatherDisplay:10.37,2013-09-30 15:07:00,
2013-09-30 11:12:00,84.0,71.9,30.00,NNE,14,1.1,0.0,67,0.00,SCT,OVC,0.00,WeatherDisplay:10.37,2013-09-30 15:12:00,
2013-09-30 11:17:00,84.9,72.3,30.00,ESE,110,0.0,0.0,66,0.00,FEW,OVC,0.00,WeatherDisplay:10.37,2013-09-30 15:17:00,
2013-09-30 11:22:00,86.0,72.9,30.00,NNW,336,0.0,0.0,65,0.00,FEW,OVC,0.00,WeatherDisplay:10.37,2013-09-30 15:22:00,
2013-09-30 11:27:00,85.7,72.1,30.00,NNW,346,2.3,0.0,64,0.00,FEW,OVC,0.00,WeatherDisplay:10.37,2013-09-30 15:27:00,
2013-09-30 11:32:00,84.9,72.3,30.00,East,95,0.0,0.0,66,0.00,FEW,OVC,0.00,WeatherDisplay:10.37,2013-09-30 15:32:00,
2013-09-30 11:34:00,85.1,72.0,30.00,East,80,0.0,0.0,65,0.00,FEW,OVC,0.00,WeatherDisplay:10.37,2013-09-30 15:34:00,
2013-09-30 11:37:00,85.1,72.0,30.00,East,80,0.0,0.0,65,0.00,FEW,OVC,0.00,WeatherDisplay:10.37,2013-09-30 15:37:00,
2013-09-30 11:42:00,85.1,72.0,30.00,East,80,0.0,0.0,65,0.00,FEW,OVC,0.00,WeatherDisplay:10.37,2013-09-30 15:42:00,
2013-09-30 11:47:00,86.1,72.0,30.00,SE,137,4.0,0.0,63,0.00,CLR,OVC,0.00,WeatherDisplay:10.37,2013-09-30 15:47:00,
2013-09-30 11:52:00,85.7,71.7,30.00,East,81,1.1,0.0,63,0.00,FEW,OVC,0.00,WeatherDisplay:10.37,2013-09-30 15:52:00,
2013-09-30 11:57:00,85.2,71.6,29.99,North,354,0.0,0.0,64,0.00,FEW,OVC,0.00,WeatherDisplay:10.37,2013-09-30 15:57:00,
2013-09-30 12:02:00,86.0,71.9,29.99,NNE,31,0.0,0.0,63,0.00,FEW,OVC,0.00,WeatherDisplay:10.37,2013-09-30 16:02:00,
2013-09-30 12:07:00,86.3,72.2,29.99,NW,310,0.0,0.0,63,0.00,FEW,OVC,0.00,WeatherDisplay:10.37,2013-09-30 16:07:00,
2013-09-30 12:13:00,87.0,72.4,29.99,North,350,0.0,0.0,62,0.00,FEW,OVC,0.00,WeatherDisplay:10.37,2013-09-30 16:13:00,
2013-09-30 12:18:00,87.5,71.4,29.99,North,355,0.0,0.0,59,0.00,FEW,OVC,0.00,WeatherDisplay:10.37,2013-09-30 16:18:00,
2013-09-30 12:23:00,87.7,71.6,29.99,ESE,106,0.0,0.0,59,0.00,FEW,OVC,0.00,WeatherDisplay:10.37,2013-09-30 16:23:00,
2013-09-30 12:28:00,86.6,71.1,29.99,NW,322,0.0,0.0,60,0.00,FEW,OVC,0.00,WeatherDisplay:10.37,2013-09-30 16:28:00,
2013-09-30 12:33:00,85.9,70.9,29.99,NE,45,0.0,0.0,61,0.00,FEW,OVC,0.00,WeatherDisplay:10.37,2013-09-30 16:33:00,
2013-09-30 12:38:00,86.5,71.9,29.99,SE,137,0.0,0.0,62,0.00,FEW,OVC,0.00,WeatherDisplay:10.37,2013-09-30 16:38:00,
2013-09-30 12:43:00,87.3,71.7,29.98,SE,128,1.1,1.1,60,0.00,FEW,OVC,0.00,WeatherDisplay:10.37,2013-09-30 16:43:00,
2013-09-30 12:48:00,87.0,70.9,29.99,NE,39,0.0,0.0,59,0.00,FEW,OVC,0.00,WeatherDisplay:10.37,2013-09-30 16:48:00,
2013-09-30 12:53:00,86.7,71.6,29.99,ENE,68,0.0,0.0,61,0.00,FEW,OVC,0.00,WeatherDisplay:10.37,2013-09-30 16:53:00,
2013-09-30 12:58:00,85.9,70.4,29.99,NNW,339,0.0,0.0,60,0.00,FEW,OVC,0.00,WeatherDisplay:10.37,2013-09-30 16:58:00,
2013-09-30 13:03:00,85.5,70.5,29.98,North,355,0.0,0.0,61,0.00,FEW,OVC,0.00,WeatherDisplay:10.37,2013-09-30 17:03:00,
2013-09-30 13:08:00,85.4,69.9,29.98,NNW,337,0.0,0.0,60,0.00,FEW,OVC,0.00,WeatherDisplay:10.37,2013-09-30 17:08:00,
2013-09-30 13:13:00,85.0,70.0,29.98,North,353,0.0,0.0,61,0.00,FEW,OVC,0.00,WeatherDisplay:10.37,2013-09-30 17:13:00,
2013-09-30 13:18:00,85.0,71.0,29.98,East,80,0.0,0.0,63,0.00,FEW,OVC,0.00,WeatherDisplay:10.37,2013-09-30 17:18:00,
2013-09-30 13:23:00,84.9,70.4,29.98,ESE,114,0.0,0.0,62,0.00,FEW,OVC,0.00,WeatherDisplay:10.37,2013-09-30 17:23:00,
2013-09-30 13:28:00,85.8,73.1,29.97,SSW,196,0.0,0.0,66,0.00,FEW,OVC,0.00,WeatherDisplay:10.37,2013-09-30 17:28:00,
2013-09-30 13:33:00,86.5,72.4,29.97,WSW,240,0.0,0.0,63,0.00,FEW,OVC,0.00,WeatherDisplay:10.37,2013-09-30 17:33:00,
2013-09-30 13:38:00,87.3,72.7,29.97,South,170,2.0,2.0,62,0.00,FEW,OVC,0.00,WeatherDisplay:10.37,2013-09-30 17:38:00,
2013-09-30 13:43:00,88.1,72.0,29.97,ENE,60,0.0,0.4,59,0.00,FEW,OVC,0.00,WeatherDisplay:10.37,2013-09-30 17:43:00,
2013-09-30 13:48:00,88.6,72.9,29.96,East,90,0.0,0.0,60,0.00,FEW,OVC,0.00,WeatherDisplay:10.37,2013-09-30 17:48:00,
2013-09-30 13:53:00,89.3,72.6,29.96,NNE,18,1.1,0.0,58,0.00,FEW,OVC,0.00,WeatherDisplay:10.37,2013-09-30 17:53:00,
2013-09-30 13:58:00,88.5,71.3,29.96,North,4,1.1,0.0,57,0.00,FEW,OVC,0.00,WeatherDisplay:10.37,2013-09-30 17:58:00,
2013-09-30 14:03:00,87.9,70.2,29.96,NNE,19,0.0,0.0,56,0.00,SCT,OVC,0.00,WeatherDisplay:10.37,2013-09-30 18:03:00,
2013-09-30 14:08:00,87.0,69.9,29.96,NNW,348,0.0,0.0,57,0.00,SCT,OVC,0.00,WeatherDisplay:10.37,2013-09-30 18:08:00,
2013-09-30 14:13:00,86.3,69.8,29.96,NNE,14,1.1,0.0,58,0.00,SCT,OVC,0.00,WeatherDisplay:10.37,2013-09-30 18:13:00,
2013-09-30 14:18:00,85.7,69.7,29.96,NNW,335,0.0,0.0,59,0.00,SCT,OVC,0.00,WeatherDisplay:10.37,2013-09-30 18:18:00,
2013-09-30 14:23:00,85.4,69.9,29.95,ENE,63,0.0,0.0,60,0.00,SCT,OVC,0.00,WeatherDisplay:10.37,2013-09-30 18:23:00,
2013-09-30 14:28:00,85.0,69.1,29.95,NNE,12,0.0,0.0,59,0.00,SCT,OVC,0.00,WeatherDisplay:10.37,2013-09-30 18:28:00,
2013-09-30 14:33:00,85.5,70.5,29.95,ESE,117,0.0,0.0,61,0.00,SCT,OVC,0.00,WeatherDisplay:10.37,2013-09-30 18:33:00,
2013-09-30 14:38:00,86.3,70.3,29.95,SE,135,1.1,0.0,59,0.00,SCT,OVC,0.00,WeatherDisplay:10.37,2013-09-30 18:38:00,
2013-09-30 14:43:00,86.7,70.7,29.95,SE,137,0.0,0.0,59,0.00,SCT,OVC,0.00,WeatherDisplay:10.37,2013-09-30 18:43:00,
2013-09-30 14:48:00,87.2,69.6,29.95,ESE,107,0.0,0.0,56,0.00,SCT,OVC,0.00,WeatherDisplay:10.37,2013-09-30 18:48:00,
2013-09-30 14:53:00,87.0,69.9,29.94,East,80,1.1,0.0,57,0.00,SCT,OVC,0.00,WeatherDisplay:10.37,2013-09-30 18:53:00,
2013-09-30 14:58:00,87.0,69.9,29.94,ESE,103,0.0,0.0,57,0.00,SCT,OVC,0.00,WeatherDisplay:10.37,2013-09-30 18:58:00,
2013-09-30 15:03:00,86.7,70.2,29.94,SE,128,0.0,0.0,58,0.00,BKN,OVC,0.00,WeatherDisplay:10.37,2013-09-30 19:03:00,
2013-09-30 15:08:00,86.4,68.8,29.94,North,353,0.0,0.0,56,0.00,BKN,OVC,0.00,WeatherDisplay:10.37,2013-09-30 19:08:00,
2013-09-30 15:13:00,86.6,70.1,29.94,SSE,157,0.0,0.0,58,0.00,BKN,OVC,0.00,WeatherDisplay:10.37,2013-09-30 19:13:00,
2013-09-30 15:18:00,86.5,70.5,29.94,ESE,114,0.0,0.0,59,0.00,BKN,OVC,0.00,WeatherDisplay:10.37,2013-09-30 19:18:00,
2013-09-30 15:23:00,86.3,69.8,29.94,WSW,239,0.0,0.0,58,0.00,BKN,OVC,0.00,WeatherDisplay:10.37,2013-09-30 19:23:00,
2013-09-30 15:28:00,86.5,70.0,29.93,NNW,339,0.0,0.0,58,0.00,BKN,OVC,0.00,WeatherDisplay:10.37,2013-09-30 19:28:00,
2013-09-30 15:33:00,86.9,69.3,29.93,NNW,344,0.0,0.0,56,0.00,BKN,OVC,0.00,WeatherDisplay:10.37,2013-09-30 19:33:00,
2013-09-30 15:38:00,87.3,69.7,29.94,NNW,346,0.0,0.0,56,0.00,BKN,OVC,0.00,WeatherDisplay:10.37,2013-09-30 19:38:00,
2013-09-30 15:43:00,86.4,71.4,29.94,NNE,18,2.3,2.3,61,0.00,BKN,OVC,0.00,WeatherDisplay:10.37,2013-09-30 19:43:00,
2013-09-30 15:48:00,85.3,72.6,29.94,ESE,116,5.8,5.8,66,0.00,BKN,OVC,0.00,WeatherDisplay:10.37,2013-09-30 19:48:00,
2013-09-30 15:53:00,84.2,72.5,29.94,SE,137,3.4,0.0,68,0.00,BKN,OVC,0.00,WeatherDisplay:10.37,2013-09-30 19:53:00,
2013-09-30 15:58:00,83.7,72.0,29.94,NNW,337,4.6,4.6,68,0.00,BKN,OVC,0.00,WeatherDisplay:10.37,2013-09-30 19:58:00,
2013-09-30 16:03:00,83.3,72.5,29.94,NNE,18,0.0,0.1,70,0.00,BKN,OVC,0.00,WeatherDisplay:10.37,2013-09-30 20:03:00,
2013-09-30 16:08:00,82.7,72.7,29.94,North,2,3.4,3.4,72,0.00,BKN,OVC,0.00,WeatherDisplay:10.37,2013-09-30 20:08:00,
2013-09-30 16:13:00,82.1,73.0,29.95,NNE,15,2.3,2.3,74,0.00,BKN,OVC,0.00,WeatherDisplay:10.37,2013-09-30 20:13:00,
2013-09-30 16:18:00,81.6,73.3,29.95,NW,319,1.1,1.1,76,0.00,BKN,OVC,0.00,WeatherDisplay:10.37,2013-09-30 20:18:00,
2013-09-30 16:23:00,81.0,73.5,29.95,North,11,1.1,1.1,78,0.00,BKN,OVC,0.00,WeatherDisplay:10.37,2013-09-30 20:23:00,
2013-09-30 16:28:00,80.9,73.0,29.95,ESE,112,3.4,3.4,77,0.00,BKN,OVC,0.00,WeatherDisplay:10.37,2013-09-30 20:28:00,
2013-09-30 16:33:00,80.9,73.0,29.95,East,99,1.1,1.1,77,0.00,BKN,OVC,0.00,WeatherDisplay:10.37,2013-09-30 20:33:00,
2013-09-30 16:38:00,80.8,72.5,29.95,NE,35,1.1,1.1,76,0.00,BKN,OVC,0.00,WeatherDisplay:10.37,2013-09-30 20:38:00,
2013-09-30 16:43:00,80.7,72.4,29.95,WNW,295,2.3,0.0,76,0.00,BKN,OVC,0.00,WeatherDisplay:10.37,2013-09-30 20:43:00,
2013-09-30 16:48:00,80.8,72.1,29.95,ENE,62,1.1,1.1,75,0.00,BKN,OVC,0.00,WeatherDisplay:10.37,2013-09-30 20:48:00,
2013-09-30 16:49:00,80.7,72.0,29.95,NNE,32,5.8,5.8,75,0.00,BKN,OVC,0.00,WeatherDisplay:10.37,2013-09-30 20:49:00,
2013-09-30 16:53:00,80.7,72.0,29.95,NNE,32,5.8,5.8,75,0.00,BKN,OVC,0.00,WeatherDisplay:10.37,2013-09-30 20:53:00,
2013-09-30 16:58:00,80.7,72.0,29.95,NNE,32,5.8,5.8,75,0.00,BKN,OVC,0.00,WeatherDisplay:10.37,2013-09-30 20:58:00,
2013-09-30 17:03:00,80.5,72.2,29.96,SE,141,3.0,3.0,76,0.00,CLR,OVC,0.00,WeatherDisplay:10.37,2013-09-30 21:03:00,
2013-09-30 17:08:00,80.4,72.1,29.96,NNW,331,0.0,0.0,76,0.00,BKN,OVC,0.00,WeatherDisplay:10.37,2013-09-30 21:08:00,
2013-09-30 17:13:00,80.5,71.4,29.96,South,181,1.1,1.1,74,0.00,BKN,OVC,0.00,WeatherDisplay:10.37,2013-09-30 21:13:00,
2013-09-30 17:18:00,80.5,71.8,29.96,ESE,114,0.0,0.0,75,0.00,BKN,OVC,0.00,WeatherDisplay:10.37,2013-09-30 21:18:00,
2013-09-30 17:23:00,80.6,71.5,29.96,North,357,4.6,4.6,74,0.00,BKN,OVC,0.00,WeatherDisplay:10.37,2013-09-30 21:23:00,
2013-09-30 17:28:00,80.5,71.4,29.96,NNW,348,4.6,4.6,74,0.00,BKN,OVC,0.00,WeatherDisplay:10.37,2013-09-30 21:28:00,
2013-09-30 17:33:00,80.4,71.3,29.96,NNE,20,0.0,0.0,74,0.00,OVC,OVC,0.00,WeatherDisplay:10.37,2013-09-30 21:33:00,
2013-09-30 17:38:00,80.3,71.6,29.96,NW,304,0.0,0.0,75,0.00,OVC,OVC,0.00,WeatherDisplay:10.37,2013-09-30 21:38:00,
2013-09-30 17:43:00,80.1,71.5,29.96,NW,308,0.0,0.0,75,0.00,OVC,OVC,0.00,WeatherDisplay:10.37,2013-09-30 21:43:00,
2013-09-30 17:48:00,79.9,71.7,29.96,North,360,0.0,0.0,76,0.00,OVC,OVC,0.00,WeatherDisplay:10.37,2013-09-30 21:48:00,
2013-09-30 17:53:00,79.9,71.7,29.96,NNE,23,0.0,0.0,76,0.00,OVC,OVC,0.00,WeatherDisplay:10.37,2013-09-30 21:53:00,
2013-09-30 17:58:00,79.7,71.5,29.96,NNE,15,2.3,2.3,76,0.00,OVC,OVC,0.00,WeatherDisplay:10.37,2013-09-30 21:58:00,
2013-09-30 18:03:00,79.5,71.7,29.96,NNE,12,0.0,0.0,77,0.00,OVC,OVC,0.00,WeatherDisplay:10.37,2013-09-30 22:03:00,
2013-09-30 18:08:00,79.4,71.2,29.96,NNE,33,1.1,1.1,76,0.00,OVC,OVC,0.00,WeatherDisplay:10.37,2013-09-30 22:08:00,
2013-09-30 18:13:00,79.2,71.4,29.96,NNW,346,0.0,0.0,77,0.00,OVC,OVC,0.00,WeatherDisplay:10.37,2013-09-30 22:13:00,
2013-09-30 18:18:00,79.0,71.2,29.96,NNE,23,0.0,0.0,77,0.00,OVC,OVC,0.00,WeatherDisplay:10.37,2013-09-30 22:18:00,
2013-09-30 18:23:00,78.9,71.1,29.97,ESE,123,0.0,0.0,77,0.00,OVC,OVC,0.00,WeatherDisplay:10.37,2013-09-30 22:23:00,
2013-09-30 18:28:00,78.7,71.3,29.97,ESE,111,0.0,0.0,78,0.00,OVC,OVC,0.00,WeatherDisplay:10.37,2013-09-30 22:28:00,
2013-09-30 18:33:00,78.5,71.1,29.97,NNE,29,1.1,0.0,78,0.00,OVC,OVC,0.00,WeatherDisplay:10.37,2013-09-30 22:33:00,
2013-09-30 18:38:00,78.3,70.9,29.98,NE,47,0.0,0.0,78,0.00,OVC,OVC,0.00,WeatherDisplay:10.37,2013-09-30 22:38:00,
2013-09-30 18:43:00,78.3,71.2,29.98,NW,312,0.0,0.0,79,0.00,OVC,OVC,0.00,WeatherDisplay:10.37,2013-09-30 22:43:00,
2013-09-30 18:48:00,78.1,71.1,29.98,NW,320,0.0,0.0,79,0.00,OVC,OVC,0.00,WeatherDisplay:10.37,2013-09-30 22:48:00,
2013-09-30 18:53:00,77.9,71.2,29.98,North,353,0.0,0.0,80,0.00,OVC,OVC,0.00,WeatherDisplay:10.37,2013-09-30 22:53:00,
2013-09-30 18:58:00,77.6,70.9,29.98,South,191,0.0,0.0,80,0.00,OVC,OVC,0.00,WeatherDisplay:10.37,2013-09-30 22:58:00,
2013-09-30 19:03:00,77.5,70.8,29.98,North,2,0.0,0.0,80,0.00,OVC,OVC,0.00,WeatherDisplay:10.37,2013-09-30 23:03:00,
2013-09-30 19:08:00,77.3,70.6,29.98,North,9,0.0,0.0,80,0.00,OVC,OVC,0.00,WeatherDisplay:10.37,2013-09-30 23:08:00,
2013-09-30 19:13:00,77.1,70.8,29.98,NNW,343,0.0,0.0,81,0.00,OVC,OVC,0.00,WeatherDisplay:10.37,2013-09-30 23:13:00,
2013-09-30 19:18:00,76.9,70.6,29.98,North,360,0.0,0.0,81,0.00,OVC,OVC,0.00,WeatherDisplay:10.37,2013-09-30 23:18:00,
2013-09-30 19:23:00,76.8,70.5,29.98,NE,40,0.0,0.0,81,0.00,OVC,OVC,0.00,WeatherDisplay:10.37,2013-09-30 23:23:00,
2013-09-30 19:28:00,76.6,70.3,29.98,ESE,110,0.0,0.0,81,0.00,OVC,OVC,0.00,WeatherDisplay:10.37,2013-09-30 23:28:00,
2013-09-30 19:33:00,76.4,70.5,29.98,NNW,343,0.0,0.0,82,0.00,OVC,OVC,0.00,WeatherDisplay:10.37,2013-09-30 23:33:00,
2013-09-30 19:38:00,76.3,70.4,29.98,NNE,18,0.0,0.0,82,0.00,OVC,OVC,0.00,WeatherDisplay:10.37,2013-09-30 23:38:00,
2013-09-30 19:43:00,76.2,70.3,29.98,North,353,0.0,0.0,82,0.00,OVC,OVC,0.00,WeatherDisplay:10.37,2013-09-30 23:43:00,
2013-09-30 19:48:00,76.0,70.1,29.98,NNW,341,0.0,0.0,82,0.00,OVC,OVC,0.00,WeatherDisplay:10.37,2013-09-30 23:48:00,
2013-09-30 19:53:00,76.0,70.1,29.98,ESE,104,0.0,0.0,82,0.00,OVC,OVC,0.00,WeatherDisplay:10.37,2013-09-30 23:53:00,
2013-09-30 19:58:00,75.9,70.0,29.98,ENE,59,0.0,0.0,82,0.00,OVC,OVC,0.00,WeatherDisplay:10.37,2013-09-30 23:58:00,
2013-09-30 20:03:00,75.8,69.9,29.98,WSW,250,0.0,0.0,82,0.00,SCT,OVC,0.00,WeatherDisplay:10.37,2013-10-01 00:03:00,
2013-09-30 20:08:00,75.7,69.8,29.99,North,353,0.0,0.0,82,0.00,SCT,OVC,0.00,WeatherDisplay:10.37,2013-10-01 00:08:00,
2013-09-30 20:13:00,75.6,70.1,29.99,NNW,347,0.0,0.0,83,0.00,SCT,OVC,0.00,WeatherDisplay:10.37,2013-10-01 00:13:00,
2013-09-30 20:18:00,75.5,70.0,30.00,East,95,0.0,0.0,83,0.00,SCT,OVC,0.00,WeatherDisplay:10.37,2013-10-01 00:18:00,
2013-09-30 20:23:00,75.4,69.9,30.00,ENE,71,0.0,0.0,83,0.00,SCT,OVC,0.00,WeatherDisplay:10.37,2013-10-01 00:23:00,
2013-09-30 20:28:00,75.3,69.8,30.00,East,95,0.0,0.0,83,0.00,SCT,OVC,0.00,WeatherDisplay:10.37,2013-10-01 00:28:00,
2013-09-30 20:33:00,75.2,69.7,30.00,North,357,0.0,0.0,83,0.00,SCT,OVC,0.00,WeatherDisplay:10.37,2013-10-01 00:33:00,
2013-09-30 20:38:00,75.2,69.7,30.01,North,7,0.0,0.0,83,0.00,SCT,OVC,0.00,WeatherDisplay:10.37,2013-10-01 00:38:00,
2013-09-30 20:43:00,75.1,69.9,30.01,North,351,0.0,0.0,84,0.00,SCT,OVC,0.00,WeatherDisplay:10.37,2013-10-01 00:43:00,
2013-09-30 20:48:00,75.0,69.8,30.01,NNE,14,0.0,0.0,84,0.00,SCT,OVC,0.00,WeatherDisplay:10.37,2013-10-01 00:48:00,
2013-09-30 20:53:00,74.9,69.7,30.01,North,7,0.0,0.0,84,0.00,SCT,OVC,0.00,WeatherDisplay:10.37,2013-10-01 00:53:00,
2013-09-30 20:58:00,74.7,69.5,30.01,North,5,0.0,0.0,84,0.00,SCT,OVC,0.00,WeatherDisplay:10.37,2013-10-01 00:58:00,
2013-09-30 21:03:00,74.6,69.4,30.01,North,5,0.0,0.0,84,0.00,CLR,OVC,0.00,WeatherDisplay:10.37,2013-10-01 01:03:00,
2013-09-30 21:08:00,74.4,69.6,30.02,North,5,0.0,0.0,85,0.00,CLR,OVC,0.00,WeatherDisplay:10.37,2013-10-01 01:08:00,
2013-09-30 21:13:00,74.2,69.4,30.02,North,5,0.0,0.0,85,0.00,CLR,OVC,0.00,WeatherDisplay:10.37,2013-10-01 01:13:00,
2013-09-30 21:18:00,74.1,69.3,30.02,North,5,0.0,0.0,85,0.00,CLR,OVC,0.00,WeatherDisplay:10.37,2013-10-01 01:18:00,
2013-09-30 21:23:00,74.0,69.5,30.02,North,5,0.0,0.0,86,0.00,CLR,OVC,0.00,WeatherDisplay:10.37,2013-10-01 01:23:00,
2013-09-30 21:28:00,73.8,69.3,30.02,North,5,0.0,0.0,86,0.00,CLR,OVC,0.00,WeatherDisplay:10.37,2013-10-01 01:28:00,
2013-09-30 21:33:00,73.7,69.2,30.02,North,5,0.0,0.0,86,0.00,CLR,OVC,0.00,WeatherDisplay:10.37,2013-10-01 01:33:00,
2013-09-30 21:38:00,73.7,69.2,30.02,NE,34,0.0,0.0,86,0.00,CLR,OVC,0.00,WeatherDisplay:10.37,2013-10-01 01:38:00,
2013-09-30 21:43:00,73.7,69.2,30.02,East,90,0.0,0.0,86,0.00,CLR,OVC,0.00,WeatherDisplay:10.37,2013-10-01 01:43:00,
2013-09-30 21:48:00,73.7,69.2,30.02,East,89,0.0,0.0,86,0.00,CLR,OVC,0.00,WeatherDisplay:10.37,2013-10-01 01:48:00,
2013-09-30 21:53:00,73.6,69.2,30.02,East,90,0.0,0.0,86,0.00,CLR,OVC,0.00,WeatherDisplay:10.37,2013-10-01 01:53:00,
2013-09-30 21:58:00,73.5,69.4,30.02,East,89,0.0,0.0,87,0.00,CLR,OVC,0.00,WeatherDisplay:10.37,2013-10-01 01:58:00,
2013-09-30 22:03:00,73.4,69.3,30.03,East,89,0.0,0.0,87,0.00,CLR,OVC,0.00,WeatherDisplay:10.37,2013-10-01 02:03:00,
2013-09-30 22:04:00,73.4,69.3,30.03,East,90,0.0,0.0,87,0.00,CLR,OVC,0.00,WeatherDisplay:10.37,2013-10-01 02:04:00,
2013-09-30 22:08:00,73.4,69.3,30.03,East,90,0.0,0.0,87,0.00,CLR,OVC,0.00,WeatherDisplay:10.37,2013-10-01 02:08:00,
2013-09-30 22:13:00,73.4,69.3,30.03,East,90,0.0,0.0,87,0.00,CLR,OVC,0.00,WeatherDisplay:10.37,2013-10-01 02:13:00,
2013-09-30 22:18:00,73.1,69.0,30.03,East,90,0.0,0.0,87,0.00,CLR,OVC,0.00,WeatherDisplay:10.37,2013-10-01 02:18:00,
2013-09-30 22:23:00,73.1,69.3,30.03,East,90,0.0,0.0,88,0.00,CLR,OVC,0.00,WeatherDisplay:10.37,2013-10-01 02:23:00,
2013-09-30 22:28:00,73.1,69.3,30.03,East,89,0.0,0.0,88,0.00,CLR,OVC,0.00,WeatherDisplay:10.37,2013-10-01 02:28:00,
2013-09-30 22:33:00,72.9,69.1,30.03,East,99,0.0,0.0,88,0.00,FEW,OVC,0.00,WeatherDisplay:10.37,2013-10-01 02:33:00,
2013-09-30 22:38:00,72.9,69.1,30.04,East,100,0.0,0.0,88,0.00,FEW,OVC,0.00,WeatherDisplay:10.37,2013-10-01 02:38:00,
2013-09-30 22:43:00,72.9,68.8,30.03,East,100,0.0,0.0,87,0.00,FEW,OVC,0.00,WeatherDisplay:10.37,2013-10-01 02:43:00,
2013-09-30 22:48:00,72.9,69.1,30.03,East,87,0.0,0.0,88,0.00,FEW,OVC,0.00,WeatherDisplay:10.37,2013-10-01 02:48:00,
2013-09-30 22:53:00,72.9,69.1,30.03,ESE,113,0.0,0.0,88,0.00,FEW,OVC,0.00,WeatherDisplay:10.37,2013-10-01 02:53:00,
2013-09-30 22:58:00,72.8,68.7,30.03,ESE,102,0.0,0.0,87,0.00,FEW,OVC,0.00,WeatherDisplay:10.37,2013-10-01 02:58:00,
2013-09-30 23:03:00,72.9,68.8,30.03,East,92,0.0,0.0,87,0.00,FEW,OVC,0.00,WeatherDisplay:10.37,2013-10-01 03:03:00,
2013-09-30 23:08:00,73.0,68.9,30.03,East,100,0.0,0.0,87,0.00,FEW,OVC,0.00,WeatherDisplay:10.37,2013-10-01 03:08:00,
2013-09-30 23:13:00,73.1,69.0,30.03,ENE,70,0.0,0.0,87,0.00,FEW,OVC,0.00,WeatherDisplay:10.37,2013-10-01 03:13:00,
2013-09-30 23:18:00,73.1,69.0,30.03,ENE,77,0.0,0.0,87,0.00,BKN,OVC,0.00,WeatherDisplay:10.37,2013-10-01 03:18:00,
2013-09-30 23:23:00,73.1,69.0,30.03,East,84,0.0,0.0,87,0.00,BKN,OVC,0.00,WeatherDisplay:10.37,2013-10-01 03:23:00,
2013-09-30 23:28:00,73.1,69.0,30.03,East,90,0.0,0.0,87,0.00,BKN,OVC,0.00,WeatherDisplay:10.37,2013-10-01 03:28:00,
2013-09-30 23:33:00,73.1,69.0,30.03,East,87,0.0,0.0,87,0.00,BKN,OVC,0.00,WeatherDisplay:10.37,2013-10-01 03:33:00,
2013-09-30 23:38:00,73.0,68.9,30.03,ESE,109,0.0,0.0,87,0.00,BKN,OVC,0.00,WeatherDisplay:10.37,2013-10-01 03:38:00,
2013-09-30 23:43:00,73.0,68.9,30.03,ESE,110,0.0,0.0,87,0.00,BKN,OVC,0.00,WeatherDisplay:10.37,2013-10-01 03:43:00,
2013-09-30 23:48:00,72.9,68.8,30.03,ESE,107,0.0,0.0,87,0.00,BKN,OVC,0.00,WeatherDisplay:10.37,2013-10-01 03:48:00,
2013-09-30 23:53:00,72.9,68.8,30.03,ESE,107,0.0,0.0,87,0.00,BKN,OVC,0.00,WeatherDisplay:10.37,2013-10-01 03:53:00,
2013-09-30 23:58:00,72.9,68.8,30.03,ESE,107,0.0,0.0,87,0.00,BKN,OVC,0.00,WeatherDisplay:10.37,2013-10-01 03:58:00,